Regional Weather Roundup
Issued by NWS

Home | Current Version | Previous Version | Graphics & Text | Print | Product List | Glossary On
Versions: 1 2 3 4 5 6 7 8 9 10 11 12 13 14 15 16 17 18 19 20 21 22 23 24 25 26 27 28 29 30 31 32 33 34 35 36 37 38 39 40 41 42 43 44 45 46 47 48 49 50
000
ASUS43 KDTX 250910
RWRMI
MICHIGAN HOURLY REGIONAL WEATHER ROUNDUP
NATIONAL WEATHER SERVICE DETROIT/PONTIAC MI
500 AM EDT THU AUG 25 2016

NOTE: "FAIR" INDICATES FEW OR NO CLOUDS BELOW 12,000 FEET WITH NO
SIGNIFICANT WEATHER AND/OR OBSTRUCTION TO VISIBILITY.

MIZ047>049-052>055-059>063-066>070-074>076-081>083-251000-
SOUTHEAST LOWER MICHIGAN

CITY           SKY/WX    TMP DP  RH WIND       PRES   REMARKS
ADRIAN         CLEAR     70  70 100 W3        30.01S
ALMA           CLOUDY    73  73 100 W7        29.96S FOG
ANN ARBOR      PTCLDY    71  71 100 SW5       29.98R FOG
BAD AXE        CLOUDY    71  71 100 W6        29.95R FOG
CARO           MOCLDY    71  71  98 W5        29.95S FOG
DETROIT CITY   CLOUDY    74  73  97 W5        29.98R
DETROIT        CLOUDY    73  72  96 SW7       29.99R FOG
FLINT          PTCLDY    74  70  87 SW3       29.96S
GROSSE ILE     CLOUDY    72  70  94 W6        29.98R
HILLSDALE      PTCLDY    70  69  94 SW3       30.01S
HOWELL         CLOUDY    71  71  99 CALM      29.98S FOG

CITY           SKY/WX    TMP DP  RH WIND       PRES   REMARKS
JACKSON        PTCLDY    71  71 100 SW7       29.99S
LAMBERTVILLE   CLEAR     73  70  92 W3        30.00S
LANSING        PTCLDY    72  69  90 SW6       29.98R
LAPEER         MOCLDY    72  71  96 W5        29.97R
MASON          MOCLDY    71  70  96 CALM      29.99S FOG
MONROE         CLEAR     70  70  99 W5        29.98S
MT. CLEMENS    CLEAR     73  73 100 SW5       29.95R
PONTIAC        PTCLDY    72  70  93 SW5       29.97R
PORT HURON     CLOUDY    72  72 100 W3        29.96R FOG
TRI CITIES     CLOUDY    71  71 100 SW5       29.96R FOG
MIDLAND        FAIR      70  69  98 SW3       29.94S FOG
TROY           MOCLDY    73  71  92 SW5       29.99R
SAGINAW HB     PTCLDY    72  70  94 SW3       29.95S FOG
$$
MIZ043>046-050>051-056>058-064>065-071>073-077>080-251000-
SOUTHWEST LOWER MICHIGAN

CITY           SKY/WX    TMP DP  RH WIND       PRES   REMARKS
BATTLE CREEK   MOCLDY    70  70 100 SW8       29.99S
BENTON HARBOR  CLOUDY    75  71  87 SW7       29.97S
BIG RAPIDS     CLOUDY    71  70  96 CALM      29.95S
COLDWATER      CLOUDY    71  71 100 SW5       30.00S
FREMONT        CLOUDY    69  68  97 CALM      29.95S FOG
HOLLAND        LGT RAIN  75  73  93 W9        29.96S
GRAND RAPIDS   CLOUDY    74  71  91 SW5       29.97R
IONIA          LGT RAIN  72  70  93 W3        29.96R
KALAMAZOO      CLOUDY    73  69  87 SW7       29.99S
LUDINGTON      CLOUDY    67  67 100 CALM      29.93R FOG
MARSHALL       PTCLDY    72  70  94 S3        29.99S
MOUNT PLEASANT MOCLDY    70  69  97 CALM      29.95S FOG
MUSKEGON       TSTM      74  73  97 S8        29.96R FOG
SOUTH HAVEN    CLOUDY    76  73  89 SW8       29.97R
$$
MIZ016>042-251000-
NORTHERN LOWER MICHIGAN

CITY           SKY/WX    TMP DP  RH WIND       PRES   REMARKS
ALPENA         CLEAR     69  66  90 SW3       29.90R
BEAVER ISLAND    N/A     66  66  99 SW3       29.89R FOG
BELLAIRE       CLOUDY    68  67  94 CALM      29.91R FOG
CADILLAC       PTCLDY    67  66  96 W3        29.95S
CHARLEVOIX     MOCLDY    71  69  95 SW6       29.92S
FRANKFORT      PTCLDY    65  63  95 CALM      29.91F
GAYLORD        CLOUDY    70  66  87 SW6       29.93S
GRAYLING       PTCLDY    69  68  98 SW3       29.94S FOG
HARBOR SPRINGS CLOUDY    71  69  93 SW6       29.89S
HOUGHTON LAKE  PTCLDY    69  67  93 W5        29.95S
MANISTEE       FOG       64  64 100 CALM      29.93R VSB 1/2
OSCODA         CLEAR     68  67  99 SW7       29.91R
PELLSTON       CLEAR     68  65  90 CALM      29.88S
ROGERS CITY    CLEAR     69  67  93 SW6       29.89S
TRAVERSE CITY  PTCLDY    70  67  90 SW3       29.90R
$$
MIZ007>008-015-251000-
EASTERN UPPER MICHIGAN

CITY           SKY/WX    TMP DP  RH WIND       PRES   REMARKS
KINROSS        FOG       65  65 100 SW3       29.86S VSB 1/4
MACKINAC ISLAN CLOUDY    69  69 100 SW7       29.86F
NEWBERRY       PTCLDY    64  63  97 SW5       29.86R
S. S. MARIE    FOG       67  66  97 S3        29.85S VSB 3/4
$$
MIZ004>006-011>014-085-251000-
CENTRAL UPPER MICHIGAN

CITY           SKY/WX    TMP DP  RH WIND       PRES   REMARKS
MANISTIQUE     PTCLDY    65  63  92 W7        29.86S
ESCANABA       MOCLDY    64  63  96 W8        29.89R
MENOMINEE      CLOUDY   N/A N/A N/A VRB3      29.92S
SAWYER-GWINN   CLOUDY    61  58  90 W5        29.90R
$$
MIZ001>003-009>011-084-251000-
WESTERN UPPER MICHIGAN

CITY           SKY/WX    TMP DP  RH WIND       PRES   REMARKS
IRON MOUNTAIN  CLOUDY    64  57  78 W3        29.92R
HOUGHTON       CLOUDY    64  59  83 W8        29.88R
COPPER HARBOR    N/A     69  57  65 VRB6      29.83R
IRONWOOD       CLEAR     58  55  90 W6        29.96R
$$

ABBREVIATIONS USED IN REMARKS
   TC - TEMPERATURE IN CELSIUS
  WCI - WIND CHILL INDEX
   HX - HEAT INDEX
  VSB - VISIBILITY





USA.gov is the U.S. government's official web portal to all federal, state and local government web resources and services.